owner,sensor,date,latitude,longitude,vertical_datum,direction_of_sea_water_velocity,sea_water_speed,upward_sea_water_velocity,qcFlag 
TABS,ioos:station:wmo:42051:1,2000-11-21T08:30:00Z,29.6350,-93.6417,2.0,337.1937683,6.140032573,-99999.0,'11133222,11111222,99999999' 
TABS,ioos:station:wmo:42051:1,2000-11-21T09:00:00Z,29.6350,-93.6417,2.0,352.0213525,8.572992476,-99999.0,'11133222,11111222,99999999' 
TABS,ioos:station:wmo:42051:1,2000-11-21T09:30:00Z,29.6350,-93.6417,2.0,358.8695222,7.601480119,-99999.0,'11133222,11111222,99999999' 
TABS,ioos:station:wmo:42051:1,2000-11-21T10:00:00Z,29.6350,-93.6417,2.0,352.0955022,6.471491327,-99999.0,'11133222,11111222,99999999' 
TABS,ioos:station:wmo:42051:1,2000-11-21T10:30:00Z,29.6350,-93.6417,2.0,345.9451464,7.370658044,-99999.0,'11133222,11111222,99999999' 
TABS,ioos:station:wmo:42051:1,2000-11-21T11:00:00Z,29.6350,-93.6417,2.0,0.000210459,3.87,-99999.0,'11133222,11111222,99999999' 
TABS,ioos:station:wmo:42051:1,2000-11-21T11:30:00Z,29.6350,-93.6417,2.0,354.7742953,3.293690939,-99999.0,'11133222,11111222,99999999' 
TABS,ioos:station:wmo:42051:1,2000-11-21T12:00:00Z,29.6350,-93.6417,2.0,11.29162806,6.077639344,-99999.0,'11133222,11111222,99999999' 
TABS,ioos:station:wmo:42051:1,2000-11-21T12:30:00Z,29.6350,-93.6417,2.0,31.33477946,7.153355856,-99999.0,'11133222,11111222,99999999' 
TABS,ioos:station:wmo:42051:1,2000-11-21T13:00:00Z,29.6350,-93.6417,2.0,35.78226059,7.901423922,-99999.0,'11133222,11111222,99999999' 
TABS,ioos:station:wmo:42051:1,2000-11-21T13:30:00Z,29.6350,-93.6417,2.0,62.21849089,9.268354762,-99999.0,'11133222,11111222,99999999' 
TABS,ioos:station:wmo:42051:1,2000-11-21T14:00:00Z,29.6350,-93.6417,2.0,52.9789632,12.12404223,-99999.0,'11111222,11111222,99999999' 
TABS,ioos:station:wmo:42051:1,2000-11-21T14:30:00Z,29.6350,-93.6417,2.0,67.66290943,14.49786881,-99999.0,'11111222,11111222,99999999' 
TABS,ioos:station:wmo:42051:1,2000-11-21T15:00:00Z,29.6350,-93.6417,2.0,68.06941556,13.1732608,-99999.0,'11111222,11111222,99999999' 
TABS,ioos:station:wmo:42051:1,2000-11-21T15:30:00Z,29.6350,-93.6417,2.0,60.11561957,13.74805077,-99999.0,'11111222,11111222,99999999' 
TABS,ioos:station:wmo:42051:1,2000-11-21T16:00:00Z,29.6350,-93.6417,2.0,52.82690327,17.75824879,-99999.0,'11111222,11111222,99999999' 
TABS,ioos:station:wmo:42051:1,2000-11-21T16:30:00Z,29.6350,-93.6417,2.0,60.07186154,18.21955543,-99999.0,'11111222,11111222,99999999' 
TABS,ioos:station:wmo:42051:1,2000-11-21T17:00:00Z,29.6350,-93.6417,2.0,61.76517966,18.26301454,-99999.0,'11111222,11111222,99999999' 
TABS,ioos:station:wmo:42051:1,2000-11-21T17:30:00Z,29.6350,-93.6417,2.0,59.02015653,18.24230523,-99999.0,'11111222,11111222,99999999' 
TABS,ioos:station:wmo:42051:1,2000-11-21T18:00:00Z,29.6350,-93.6417,2.0,62.60834319,14.25865351,-99999.0,'11111222,11111222,99999999' 
TABS,ioos:station:wmo:42051:1,2000-11-21T18:30:00Z,29.6350,-93.6417,2.0,61.65437266,17.27078458,-99999.0,'11111222,11111222,99999999' 
TABS,ioos:station:wmo:42051:1,2000-11-21T19:00:00Z,29.6350,-93.6417,2.0,59.90032546,18.42447286,-99999.0,'11111222,11111222,99999999' 
TABS,ioos:station:wmo:42051:1,2000-11-21T19:30:00Z,29.6350,-93.6417,2.0,60.58757406,18.8151455,-99999.0,'11111222,11111222,99999999' 
TABS,ioos:station:wmo:42051:1,2000-11-21T20:00:00Z,29.6350,-93.6417,2.0,54.79653645,23.5219472,-99999.0,'11111222,11111222,99999999' 
TABS,ioos:station:wmo:42051:1,2000-11-21T20:30:00Z,29.6350,-93.6417,2.0,51.72305078,25.24761375,-99999.0,'11111222,11111222,99999999' 
TABS,ioos:station:wmo:42051:1,2000-11-21T21:00:00Z,29.6350,-93.6417,2.0,52.33343602,23.1562389,-99999.0,'11111222,11111222,99999999' 
TABS,ioos:station:wmo:42051:1,2000-11-21T21:30:00Z,29.6350,-93.6417,2.0,55.06751606,22.89508681,-99999.0,'11111222,11111222,99999999' 
TABS,ioos:station:wmo:42051:1,2000-11-21T22:00:00Z,29.6350,-93.6417,2.0,54.78100949,18.60572224,-99999.0,'11111222,11111222,99999999' 
TABS,ioos:station:wmo:42051:1,2000-11-21T22:30:00Z,29.6350,-93.6417,2.0,55.74066134,20.37514417,-99999.0,'11111222,11111222,99999999' 
TABS,ioos:station:wmo:42051:1,2000-11-21T23:00:00Z,29.6350,-93.6417,2.0,49.88921244,18.50159182,-99999.0,'11111222,11111222,99999999' 
TABS,ioos:station:wmo:42051:1,2000-11-21T23:30:00Z,29.6350,-93.6417,2.0,55.13004122,16.16184395,-99999.0,'11111222,11111222,99999999' 
TABS,ioos:station:wmo:42051:1,2000-11-22T00:00:00Z,29.6350,-93.6417,2.0,56.62447377,15.1601847,-99999.0,'11111222,11111222,99999999' 
TABS,ioos:station:wmo:42051:1,2000-11-22T00:30:00Z,29.6350,-93.6417,2.0,44.57902771,14.43243916,-99999.0,'11111222,11111222,99999999' 
TABS,ioos:station:wmo:42051:1,2000-11-22T01:00:00Z,29.6350,-93.6417,2.0,54.01657235,13.44560895,-99999.0,'11111222,11111222,99999999' 
TABS,ioos:station:wmo:42051:1,2000-11-22T01:30:00Z,29.6350,-93.6417,2.0,63.67341031,16.12218968,-99999.0,'11111222,11111222,99999999' 
TABS,ioos:station:wmo:42051:1,2000-11-22T02:00:00Z,29.6350,-93.6417,2.0,75.9449359,14.74131609,-99999.0,'11111222,11111222,99999999' 
TABS,ioos:station:wmo:42051:1,2000-11-22T02:30:00Z,29.6350,-93.6417,2.0,69.19997822,15.93880799,-99999.0,'11111222,11111222,99999999' 
TABS,ioos:station:wmo:42051:1,2000-11-22T03:00:00Z,29.6350,-93.6417,2.0,78.91903114,14.72451697,-99999.0,'11111222,11111222,99999999' 
TABS,ioos:station:wmo:42051:1,2000-11-22T03:30:00Z,29.6350,-93.6417,2.0,70.05766205,14.42497834,-99999.0,'11111222,11111222,99999999' 
TABS,ioos:station:wmo:42051:1,2000-11-22T04:00:00Z,29.6350,-93.6417,2.0,71.41839764,17.29139092,-99999.0,'11111222,11111222,99999999' 
TABS,ioos:station:wmo:42051:1,2000-11-22T04:30:00Z,29.6350,-93.6417,2.0,54.5359754,17.20117729,-99999.0,'11111222,11111222,99999999' 
TABS,ioos:station:wmo:42051:1,2000-11-22T05:00:00Z,29.6350,-93.6417,2.0,60.67098934,20.68085588,-99999.0,'11111222,11111222,99999999' 
TABS,ioos:station:wmo:42051:1,2000-11-22T05:30:00Z,29.6350,-93.6417,2.0,55.06914438,16.90567952,-99999.0,'11111222,11111222,99999999' 
TABS,ioos:station:wmo:42051:1,2000-11-22T06:00:00Z,29.6350,-93.6417,2.0,54.87216945,16.57966224,-99999.0,'11111222,11111222,99999999' 
TABS,ioos:station:wmo:42051:1,2000-11-22T06:30:00Z,29.6350,-93.6417,2.0,59.90755114,16.35428079,-99999.0,'11111222,11111222,99999999' 
TABS,ioos:station:wmo:42051:1,2000-11-22T07:00:00Z,29.6350,-93.6417,2.0,61.54423201,16.26506994,-99999.0,'11111222,11111222,99999999' 
TABS,ioos:station:wmo:42051:1,2000-11-22T07:30:00Z,29.6350,-93.6417,2.0,51.15841244,13.77615694,-99999.0,'11111222,11111222,99999999' 
TABS,ioos:station:wmo:42051:1,2000-11-22T08:00:00Z,29.6350,-93.6417,2.0,54.01899606,15.47186156,-99999.0,'11111222,11111222,99999999' 
TABS,ioos:station:wmo:42051:1,2000-11-22T08:30:00Z,29.6350,-93.6417,2.0,52.49856391,16.14698114,-99999.0,'11111222,11111222,99999999' 
TABS,ioos:station:wmo:42051:1,2000-11-22T09:00:00Z,29.6350,-93.6417,2.0,45.00010523,16.64529363,-99999.0,'11111222,11111222,99999999' 
TABS,ioos:station:wmo:42051:1,2000-11-22T09:30:00Z,29.6350,-93.6417,2.0,52.99561302,13.62403758,-99999.0,'11111222,11111222,99999999' 
TABS,ioos:station:wmo:42051:1,2000-11-22T10:00:00Z,29.6350,-93.6417,2.0,51.08733235,20.87126494,-99999.0,'11111222,11111222,99999999' 
TABS,ioos:station:wmo:42051:1,2000-11-22T10:30:00Z,29.6350,-93.6417,2.0,49.66196742,18.18330278,-99999.0,'11111222,11111222,99999999' 
TABS,ioos:station:wmo:42051:1,2000-11-22T11:00:00Z,29.6350,-93.6417,2.0,47.08649832,17.28607821,-99999.0,'11111222,11111222,99999999' 
TABS,ioos:station:wmo:42051:1,2000-11-22T11:30:00Z,29.6350,-93.6417,2.0,55.59277725,16.61734636,-99999.0,'11111222,11111222,99999999' 
TABS,ioos:station:wmo:42051:1,2000-11-22T12:00:00Z,29.6350,-93.6417,2.0,63.65940527,17.12841207,-99999.0,'11111222,11111222,99999999' 
TABS,ioos:station:wmo:42051:1,2000-11-22T12:30:00Z,29.6350,-93.6417,2.0,61.74123465,15.73537734,-99999.0,'11111222,11111222,99999999' 
TABS,ioos:station:wmo:42051:1,2000-11-22T13:00:00Z,29.6350,-93.6417,2.0,61.0160793,12.60924264,-99999.0,'11111222,11111222,99999999' 
TABS,ioos:station:wmo:42051:1,2000-11-22T13:30:00Z,29.6350,-93.6417,2.0,65.80012701,11.27043921,-99999.0,'11111222,11111222,99999999' 
TABS,ioos:station:wmo:42051:1,2000-11-22T14:00:00Z,29.6350,-93.6417,2.0,68.3440616,11.70627182,-99999.0,'11111222,11111222,99999999' 
TABS,ioos:station:wmo:42051:1,2000-11-22T14:30:00Z,29.6350,-93.6417,2.0,70.74533972,9.946381251,-99999.0,'11133222,11111222,99999999' 
TABS,ioos:station:wmo:42051:1,2000-11-22T15:00:00Z,29.6350,-93.6417,2.0,77.60550801,13.88358743,-99999.0,'11111222,11111222,99999999' 
TABS,ioos:station:wmo:42051:1,2000-11-22T15:30:00Z,29.6350,-93.6417,2.0,75.31956262,12.94251907,-99999.0,'11111222,11111222,99999999' 
TABS,ioos:station:wmo:42051:1,2000-11-22T16:00:00Z,29.6350,-93.6417,2.0,82.48011502,13.67763503,-99999.0,'11111222,11111222,99999999' 
TABS,ioos:station:wmo:42051:1,2000-11-22T16:30:00Z,29.6350,-93.6417,2.0,77.86575308,14.17674152,-99999.0,'11111222,11111222,99999999' 
TABS,ioos:station:wmo:42051:1,2000-11-22T17:00:00Z,29.6350,-93.6417,2.0,70.99024088,14.18352918,-99999.0,'11111222,11111222,99999999' 
TABS,ioos:station:wmo:42051:1,2000-11-22T17:30:00Z,29.6350,-93.6417,2.0,74.73685057,18.68922952,-99999.0,'11111222,11111222,99999999' 
TABS,ioos:station:wmo:42051:1,2000-11-22T18:00:00Z,29.6350,-93.6417,2.0,76.18646855,18.72146629,-99999.0,'11111222,11111222,99999999' 
TABS,ioos:station:wmo:42051:1,2000-11-22T18:30:00Z,29.6350,-93.6417,2.0,77.05760672,17.2789612,-99999.0,'11111222,11111222,99999999' 
TABS,ioos:station:wmo:42051:1,2000-11-22T19:00:00Z,29.6350,-93.6417,2.0,69.69585801,18.90466874,-99999.0,'11111222,11111222,99999999' 
TABS,ioos:station:wmo:42051:1,2000-11-22T19:30:00Z,29.6350,-93.6417,2.0,73.29117392,17.11252465,-99999.0,'11111222,11111222,99999999' 
TABS,ioos:station:wmo:42051:1,2000-11-22T20:00:00Z,29.6350,-93.6417,2.0,52.21214723,9.237185719,-99999.0,'11133222,11111222,99999999' 
TABS,ioos:station:wmo:42051:1,2000-11-22T20:30:00Z,29.6350,-93.6417,2.0,55.29833659,16.49380793,-99999.0,'11111222,11111222,99999999' 
TABS,ioos:station:wmo:42051:1,2000-11-22T21:00:00Z,29.6350,-93.6417,2.0,53.59282163,19.07262174,-99999.0,'11111222,11111222,99999999' 
TABS,ioos:station:wmo:42051:1,2000-11-22T21:30:00Z,29.6350,-93.6417,2.0,56.32557861,20.41574148,-99999.0,'11111222,11111222,99999999' 
TABS,ioos:station:wmo:42051:1,2000-11-22T22:00:00Z,29.6350,-93.6417,2.0,60.53095074,22.42077831,-99999.0,'11111222,11111222,99999999' 
TABS,ioos:station:wmo:42051:1,2000-11-22T22:30:00Z,29.6350,-93.6417,2.0,55.22403658,21.95065603,-99999.0,'11111222,11111222,99999999' 
TABS,ioos:station:wmo:42051:1,2000-11-22T23:00:00Z,29.6350,-93.6417,2.0,57.93537217,17.40517452,-99999.0,'11111222,11111222,99999999' 
TABS,ioos:station:wmo:42051:1,2000-11-22T23:30:00Z,29.6350,-93.6417,2.0,56.84926927,17.97585603,-99999.0,'11111222,11111222,99999999' 
TABS,ioos:station:wmo:42051:1,2000-11-23T00:00:00Z,29.6350,-93.6417,2.0,59.48068514,13.4887694,-99999.0,'11111222,11111222,99999999' 
TABS,ioos:station:wmo:42051:1,2000-11-23T00:30:00Z,29.6350,-93.6417,2.0,54.79023361,14.22196892,-99999.0,'11111222,11111222,99999999' 
TABS,ioos:station:wmo:42051:1,2000-11-23T01:00:00Z,29.6350,-93.6417,2.0,65.01488539,12.00330371,-99999.0,'11111222,11111222,99999999' 
TABS,ioos:station:wmo:42051:1,2000-11-23T01:30:00Z,29.6350,-93.6417,2.0,57.76377001,18.1473111,-99999.0,'11111222,11111222,99999999' 
TABS,ioos:station:wmo:42051:1,2000-11-23T02:00:00Z,29.6350,-93.6417,2.0,60.73065988,15.54456818,-99999.0,'11111222,11111222,99999999' 
TABS,ioos:station:wmo:42051:1,2000-11-23T02:30:00Z,29.6350,-93.6417,2.0,69.42963584,14.00280329,-99999.0,'11111222,11111222,99999999' 
TABS,ioos:station:wmo:42051:1,2000-11-23T03:00:00Z,29.6350,-93.6417,2.0,59.25875245,13.69426522,-99999.0,'11111222,11111222,99999999' 
TABS,ioos:station:wmo:42051:1,2000-11-23T03:30:00Z,29.6350,-93.6417,2.0,62.29305629,13.46380333,-99999.0,'11111222,11111222,99999999' 
TABS,ioos:station:wmo:42051:1,2000-11-23T04:00:00Z,29.6350,-93.6417,2.0,64.2362964,19.18733958,-99999.0,'11111222,11111222,99999999' 
TABS,ioos:station:wmo:42051:1,2000-11-23T04:30:00Z,29.6350,-93.6417,2.0,59.11953792,17.71067757,-99999.0,'11111222,11111222,99999999' 
TABS,ioos:station:wmo:42051:1,2000-11-23T05:00:00Z,29.6350,-93.6417,2.0,64.03694878,18.73033903,-99999.0,'11111222,11111222,99999999' 
TABS,ioos:station:wmo:42051:1,2000-11-23T05:30:00Z,29.6350,-93.6417,2.0,46.40642615,8.643448386,-99999.0,'11133222,11111222,99999999' 
TABS,ioos:station:wmo:42051:1,2000-11-23T06:00:00Z,29.6350,-93.6417,2.0,56.77720038,14.96630883,-99999.0,'11111222,11111222,99999999' 
TABS,ioos:station:wmo:42051:1,2000-11-23T06:30:00Z,29.6350,-93.6417,2.0,65.67344061,13.73994178,-99999.0,'11111222,11111222,99999999' 
TABS,ioos:station:wmo:42051:1,2000-11-23T07:00:00Z,29.6350,-93.6417,2.0,51.13602855,19.71393923,-99999.0,'11111222,11111222,99999999' 
TABS,ioos:station:wmo:42051:1,2000-11-23T07:30:00Z,29.6350,-93.6417,2.0,45.00010523,18.96460387,-99999.0,'11111222,11111222,99999999' 
TABS,ioos:station:wmo:42051:1,2000-11-23T08:00:00Z,29.6350,-93.6417,2.0,44.62789969,16.32744009,-99999.0,'11111222,11111222,99999999' 
TABS,ioos:station:wmo:42051:1,2000-11-23T08:30:00Z,29.6350,-93.6417,2.0,52.73771322,17.22640415,-99999.0,'11111222,11111222,99999999' 
TABS,ioos:station:wmo:42051:1,2000-11-23T09:00:00Z,29.6350,-93.6417,2.0,54.3486581,18.15210456,-99999.0,'11111222,11111222,99999999' 
TABS,ioos:station:wmo:42051:1,2000-11-23T09:30:00Z,29.6350,-93.6417,2.0,58.24216967,14.72456791,-99999.0,'11111222,11111222,99999999' 
TABS,ioos:station:wmo:42051:1,2000-11-23T10:00:00Z,29.6350,-93.6417,2.0,50.06239588,15.5462793,-99999.0,'11111222,11111222,99999999' 
TABS,ioos:station:wmo:42051:1,2000-11-23T10:30:00Z,29.6350,-93.6417,2.0,48.55000793,15.30286901,-99999.0,'11111222,11111222,99999999' 
TABS,ioos:station:wmo:42051:1,2000-11-23T11:00:00Z,29.6350,-93.6417,2.0,49.60826514,18.3947411,-99999.0,'11111222,11111222,99999999' 
TABS,ioos:station:wmo:42051:1,2000-11-23T11:30:00Z,29.6350,-93.6417,2.0,57.45782666,18.55289735,-99999.0,'11111222,11111222,99999999' 
TABS,ioos:station:wmo:42051:1,2000-11-23T12:00:00Z,29.6350,-93.6417,2.0,54.4011675,17.40228146,-99999.0,'11111222,11111222,99999999' 
TABS,ioos:station:wmo:42051:1,2000-11-23T12:30:00Z,29.6350,-93.6417,2.0,57.56378454,18.88651635,-99999.0,'11111222,11111222,99999999' 
TABS,ioos:station:wmo:42051:1,2000-11-23T13:00:00Z,29.6350,-93.6417,2.0,68.11157346,21.9956382,-99999.0,'11111222,11111222,99999999' 
TABS,ioos:station:wmo:42051:1,2000-11-23T13:30:00Z,29.6350,-93.6417,2.0,62.74008436,16.59284484,-99999.0,'11111222,11111222,99999999' 
TABS,ioos:station:wmo:42051:1,2000-11-23T14:00:00Z,29.6350,-93.6417,2.0,71.5760852,16.48495375,-99999.0,'11111222,11111222,99999999' 
TABS,ioos:station:wmo:42051:1,2000-11-23T14:30:00Z,29.6350,-93.6417,2.0,81.57098557,20.32959665,-99999.0,'11111222,11111222,99999999' 
TABS,ioos:station:wmo:42051:1,2000-11-23T15:00:00Z,29.6350,-93.6417,2.0,78.93676313,26.42101058,-99999.0,'11111222,11111222,99999999' 
TABS,ioos:station:wmo:42051:1,2000-11-23T15:30:00Z,29.6350,-93.6417,2.0,82.65736786,24.49083502,-99999.0,'11111222,11111222,99999999' 
TABS,ioos:station:wmo:42051:1,2000-11-23T16:00:00Z,29.6350,-93.6417,2.0,78.94411673,25.65616495,-99999.0,'11111222,11111222,99999999' 
TABS,ioos:station:wmo:42051:1,2000-11-23T16:30:00Z,29.6350,-93.6417,2.0,66.28534478,30.75715364,-99999.0,'11111222,11111222,99999999' 
TABS,ioos:station:wmo:42051:1,2000-11-23T17:00:00Z,29.6350,-93.6417,2.0,75.50581416,32.16367672,-99999.0,'11111222,11111222,99999999' 
TABS,ioos:station:wmo:42051:1,2000-11-23T17:30:00Z,29.6350,-93.6417,2.0,75.68611426,29.52663374,-99999.0,'11111222,11111222,99999999' 
TABS,ioos:station:wmo:42051:1,2000-11-23T18:00:00Z,29.6350,-93.6417,2.0,73.43660056,30.30762445,-99999.0,'11111222,11111222,99999999' 
TABS,ioos:station:wmo:42051:1,2000-11-23T18:30:00Z,29.6350,-93.6417,2.0,80.34375864,36.4260923,-99999.0,'11111222,11111222,99999999' 
TABS,ioos:station:wmo:42051:1,2000-11-23T19:00:00Z,29.6350,-93.6417,2.0,82.84434249,37.08887165,-99999.0,'11111222,11111222,99999999' 
TABS,ioos:station:wmo:42051:1,2000-11-23T19:30:00Z,29.6350,-93.6417,2.0,80.13421613,34.78440024,-99999.0,'11111222,11111222,99999999' 
TABS,ioos:station:wmo:42051:1,2000-11-23T20:00:00Z,29.6350,-93.6417,2.0,85.52348505,30.49302215,-99999.0,'11111222,11111222,99999999' 
TABS,ioos:station:wmo:42051:1,2000-11-23T20:30:00Z,29.6350,-93.6417,2.0,79.2789809,28.81294327,-99999.0,'11111222,11111222,99999999' 
TABS,ioos:station:wmo:42051:1,2000-11-23T21:00:00Z,29.6350,-93.6417,2.0,73.79677163,27.77321371,-99999.0,'11111222,11111222,99999999' 
TABS,ioos:station:wmo:42051:1,2000-11-23T21:30:00Z,29.6350,-93.6417,2.0,70.77757487,27.60929191,-99999.0,'11111222,11111222,99999999' 
TABS,ioos:station:wmo:42051:1,2000-11-23T22:00:00Z,29.6350,-93.6417,2.0,60.0019196,28.90161587,-99999.0,'11111222,11111222,99999999' 
TABS,ioos:station:wmo:42051:1,2000-11-23T22:30:00Z,29.6350,-93.6417,2.0,67.40370833,33.72923361,-99999.0,'11111222,11111222,99999999' 
TABS,ioos:station:wmo:42051:1,2000-11-23T23:00:00Z,29.6350,-93.6417,2.0,71.22545764,31.47470254,-99999.0,'11111222,11111222,99999999' 
TABS,ioos:station:wmo:42051:1,2000-11-23T23:30:00Z,29.6350,-93.6417,2.0,78.51549932,27.67407632,-99999.0,'11111222,11111222,99999999' 
TABS,ioos:station:wmo:42051:1,2000-11-24T00:00:00Z,29.6350,-93.6417,2.0,79.07113558,25.95066088,-99999.0,'11111222,11111222,99999999' 
TABS,ioos:station:wmo:42051:1,2000-11-24T00:30:00Z,29.6350,-93.6417,2.0,73.06587326,21.49188684,-99999.0,'11111222,11111222,99999999' 
TABS,ioos:station:wmo:42051:1,2000-11-24T01:00:00Z,29.6350,-93.6417,2.0,70.85521659,22.71638396,-99999.0,'11111222,11111222,99999999' 
TABS,ioos:station:wmo:42051:1,2000-11-24T01:30:00Z,29.6350,-93.6417,2.0,72.0620297,22.24113531,-99999.0,'11111222,11111222,99999999' 
TABS,ioos:station:wmo:42051:1,2000-11-24T02:00:00Z,29.6350,-93.6417,2.0,70.93958391,21.43519536,-99999.0,'11111222,11111222,99999999' 
TABS,ioos:station:wmo:42051:1,2000-11-24T02:30:00Z,29.6350,-93.6417,2.0,74.54205241,21.79853665,-99999.0,'11111222,11111222,99999999' 
TABS,ioos:station:wmo:42051:1,2000-11-24T03:00:00Z,29.6350,-93.6417,2.0,74.99752706,21.28552795,-99999.0,'11111222,11111222,99999999' 
TABS,ioos:station:wmo:42051:1,2000-11-24T03:30:00Z,29.6350,-93.6417,2.0,82.38231851,21.34840743,-99999.0,'11111222,11111222,99999999' 
TABS,ioos:station:wmo:42051:1,2000-11-24T04:00:00Z,29.6350,-93.6417,2.0,88.10365572,22.3622472,-99999.0,'11111222,11111222,99999999' 
TABS,ioos:station:wmo:42051:1,2000-11-24T04:30:00Z,29.6350,-93.6417,2.0,90.43361164,19.8205676,-99999.0,'11111222,11111222,99999999' 
TABS,ioos:station:wmo:42051:1,2000-11-24T05:00:00Z,29.6350,-93.6417,2.0,86.27102473,20.60362104,-99999.0,'11111222,11111222,99999999' 
TABS,ioos:station:wmo:42051:1,2000-11-24T05:30:00Z,29.6350,-93.6417,2.0,83.43266664,19.49794348,-99999.0,'11111222,11111222,99999999' 
TABS,ioos:station:wmo:42051:1,2000-11-24T06:00:00Z,29.6350,-93.6417,2.0,82.32341215,18.93974129,-99999.0,'11111222,11111222,99999999' 
TABS,ioos:station:wmo:42051:1,2000-11-24T06:30:00Z,29.6350,-93.6417,2.0,82.98709222,17.11806648,-99999.0,'11111222,11111222,99999999' 
TABS,ioos:station:wmo:42051:1,2000-11-24T07:00:00Z,29.6350,-93.6417,2.0,83.24961704,16.50441456,-99999.0,'11111222,11111222,99999999' 
TABS,ioos:station:wmo:42051:1,2000-11-24T07:30:00Z,29.6350,-93.6417,2.0,74.14024505,14.70995921,-99999.0,'11111222,11111222,99999999' 
TABS,ioos:station:wmo:42051:1,2000-11-24T08:00:00Z,29.6350,-93.6417,2.0,79.87654018,16.95395234,-99999.0,'11111222,11111222,99999999' 
TABS,ioos:station:wmo:42051:1,2000-11-24T08:30:00Z,29.6350,-93.6417,2.0,85.00656181,18.84151002,-99999.0,'11111222,11111222,99999999' 
TABS,ioos:station:wmo:42051:1,2000-11-24T09:00:00Z,29.6350,-93.6417,2.0,80.89700788,15.99140394,-99999.0,'11111222,11111222,99999999' 
TABS,ioos:station:wmo:42051:1,2000-11-24T09:30:00Z,29.6350,-93.6417,2.0,81.76619078,12.49883995,-99999.0,'11111222,11111222,99999999' 
TABS,ioos:station:wmo:42051:1,2000-11-24T10:00:00Z,29.6350,-93.6417,2.0,77.48127434,12.36395163,-99999.0,'11111222,11111222,99999999' 
TABS,ioos:station:wmo:42051:1,2000-11-24T10:30:00Z,29.6350,-93.6417,2.0,71.56509429,9.423587427,-99999.0,'11133222,11111222,99999999' 
TABS,ioos:station:wmo:42051:1,2000-11-24T11:00:00Z,29.6350,-93.6417,2.0,54.21794987,7.901423922,-99999.0,'11133222,11111222,99999999' 
TABS,ioos:station:wmo:42051:1,2000-11-24T11:30:00Z,29.6350,-93.6417,2.0,107.8143995,4.380011416,-99999.0,'11133222,11111222,99999999' 
TABS,ioos:station:wmo:42051:1,2000-11-24T12:00:00Z,29.6350,-93.6417,2.0,204.0018826,4.400511334,-99999.0,'11133222,11111222,99999999' 
TABS,ioos:station:wmo:42051:1,2000-11-24T12:30:00Z,29.6350,-93.6417,2.0,336.6387249,6.002041319,-99999.0,'11133222,11111222,99999999' 
TABS,ioos:station:wmo:42051:1,2000-11-24T13:00:00Z,29.6350,-93.6417,2.0,79.52338491,9.844109914,-99999.0,'11133222,11111222,99999999' 
TABS,ioos:station:wmo:42051:1,2000-11-24T13:30:00Z,29.6350,-93.6417,2.0,57.08893212,9.588878975,-99999.0,'11133222,11111222,99999999' 
TABS,ioos:station:wmo:42051:1,2000-11-24T14:00:00Z,29.6350,-93.6417,2.0,22.6109205,29.05307729,-99999.0,'11111222,11111222,99999999' 
TABS,ioos:station:wmo:42051:1,2000-11-24T14:30:00Z,29.6350,-93.6417,2.0,55.78969666,32.06854066,-99999.0,'11111222,11111222,99999999' 
TABS,ioos:station:wmo:42051:1,2000-11-24T15:00:00Z,29.6350,-93.6417,2.0,54.92992592,36.04378032,-99999.0,'11111222,11111222,99999999' 
TABS,ioos:station:wmo:42051:1,2000-11-24T15:30:00Z,29.6350,-93.6417,2.0,58.68318848,37.84359655,-99999.0,'11111222,11111222,99999999' 
TABS,ioos:station:wmo:42051:1,2000-11-24T16:00:00Z,29.6350,-93.6417,2.0,65.38043394,27.53292211,-99999.0,'11111222,11111222,99999999' 
TABS,ioos:station:wmo:42051:1,2000-11-24T16:30:00Z,29.6350,-93.6417,2.0,118.4247886,8.13015375,-99999.0,'11133222,11111222,99999999' 
TABS,ioos:station:wmo:42051:1,2000-11-24T17:00:00Z,29.6350,-93.6417,2.0,221.5504211,5.171247432,-99999.0,'11133222,11111222,99999999' 
TABS,ioos:station:wmo:42051:1,2000-11-24T17:30:00Z,29.6350,-93.6417,2.0,301.2290838,11.4956731,-99999.0,'11111222,11111222,99999999' 
TABS,ioos:station:wmo:42051:1,2000-11-24T18:00:00Z,29.6350,-93.6417,2.0,323.1432226,8.936000224,-99999.0,'11133222,11111222,99999999' 
TABS,ioos:station:wmo:42051:1,2000-11-24T20:30:00Z,29.6350,-93.6417,2.0,88.3307565,30.55296549,-99999.0,'11111222,11111222,99999999' 
TABS,ioos:station:wmo:42051:1,2000-11-24T21:00:00Z,29.6350,-93.6417,2.0,88.09402631,18.0399806,-99999.0,'11111222,11111222,99999999' 
TABS,ioos:station:wmo:42051:1,2000-11-24T21:30:00Z,29.6350,-93.6417,2.0,62.91356327,7.862340618,-99999.0,'11133222,11111222,99999999' 
TABS,ioos:station:wmo:42051:1,2000-11-24T22:00:00Z,29.6350,-93.6417,2.0,4.877477603,10.46790332,-99999.0,'11111222,11111222,99999999' 
TABS,ioos:station:wmo:42051:1,2000-11-24T22:30:00Z,29.6350,-93.6417,2.0,9.058077406,13.27554895,-99999.0,'11111222,11111222,99999999' 
TABS,ioos:station:wmo:42051:1,2000-11-24T23:00:00Z,29.6350,-93.6417,2.0,30.88393292,15.97510876,-99999.0,'11111222,11111222,99999999' 
TABS,ioos:station:wmo:42051:1,2000-11-24T23:30:00Z,29.6350,-93.6417,2.0,23.62165183,20.81394965,-99999.0,'11111222,11111222,99999999' 
TABS,ioos:station:wmo:42051:1,2000-11-25T00:00:00Z,29.6350,-93.6417,2.0,22.75924673,23.10929899,-99999.0,'11111222,11111222,99999999' 
TABS,ioos:station:wmo:42051:1,2000-11-25T01:00:00Z,29.6350,-93.6417,2.0,358.2875619,15.05672607,-99999.0,'11111222,11111222,99999999' 
TABS,ioos:station:wmo:42051:1,2000-11-25T01:30:00Z,29.6350,-93.6417,2.0,2.981664707,8.651710813,-99999.0,'11133222,11111222,99999999' 
TABS,ioos:station:wmo:42051:1,2000-11-25T02:00:00Z,29.6350,-93.6417,2.0,333.7576211,11.12685041,-99999.0,'11111222,11111222,99999999' 
TABS,ioos:station:wmo:42051:1,2000-11-25T02:30:00Z,29.6350,-93.6417,2.0,332.1730278,8.933023005,-99999.0,'11133222,11111222,99999999' 
TABS,ioos:station:wmo:42051:1,2000-11-25T03:00:00Z,29.6350,-93.6417,2.0,352.0455342,12.93445785,-99999.0,'11111222,11111222,99999999' 